Marshfield, WI

1:43 PM CST on November 14, 2019 (GMT -0600)
Marshfield Municipal

Weather History for KMFI - September, 2019

Change the Weather History Date:

Tuesday, September 17, 2019

  Actual Average Record
Temperature  
Mean Temperature 72 °F -  
Max Temperature 82 °F 69 °F 92 °F (1948)
Min Temperature 61 °F 45 °F 26 °F (1916)
Cooling Degree Days 6    
Growing Degree Days 22 (Base 50)    
Moisture  
Dew Point 61 °F    
Average Humidity 75    
Maximum Humidity 93    
Minimum Humidity 51    
Precipitation  
Precipitation 0.00 in - - ()
Sea Level Pressure  
Sea Level Pressure 30.09 in    
Wind  
Wind Speed 8 mph (SSE)    
Max Wind Speed 14 mph    
Max Gust Speed 20 mph    
Visibility 10 miles    
Events      
Averages and records for this station are not official NWS values.
T = Trace of Precipitation, MM = Missing Value Source: NWS Daily Summary

Daily Weather History Graph

Daily Weather History Graph

Search for Another Location

Airport or City:

Astronomy

Sep. 17, 2019 Rise Set
Actual Time 6:41 AM CDT 7:08 PM CDT
Civil Twilight 6:12 AM CDT 7:37 PM CDT
Nautical Twilight 5:37 AM CDT 8:11 PM CDT
Astronomical Twilight 5:02 AM CDT 8:47 PM CDT
Moon 9:03 PM CDT (9/17) 9:52 AM CDT (9/17)
Length of Visible Light 13h 24m
Length of Day
12h 26m
Waning Gibbous, 89% of the Moon is Illuminated
Sep 17
Waning Gibbous
Sep 21
Last Quarter
Sep 28
New
Oct 5
First Quarter
Oct 13
Full

Hourly Weather History & Observations

Time (CDT) Temp. Heat Index Dew Point Humidity Pressure Visibility Wind Dir Wind Speed Gust Speed Precip Events Conditions
12:54 AM 64.9 °F - 61.0 °F 87% 30.10 in 10.0 mi SSE 6.9 mph - N/A   Clear
1:54 AM 64.0 °F - 61.0 °F 90% 30.11 in 10.0 mi South 6.9 mph - N/A   Clear
2:54 AM 63.0 °F - 60.1 °F 90% 30.11 in 10.0 mi South 5.8 mph - N/A   Clear
3:54 AM 63.0 °F - 61.0 °F 93% 30.11 in 10.0 mi SSE 5.8 mph - N/A   Clear
4:54 AM 62.1 °F - 60.1 °F 93% 30.12 in 8.0 mi South 5.8 mph - N/A   Clear
5:54 AM 62.1 °F - 60.1 °F 93% 30.12 in 7.0 mi SSE 5.8 mph - N/A   Clear
6:54 AM 61.0 °F - 59.0 °F 93% 30.14 in 8.0 mi South 5.8 mph - N/A   Clear
7:54 AM 63.0 °F - 59.0 °F 87% 30.15 in 10.0 mi ESE 3.5 mph - N/A   Clear
8:54 AM 66.0 °F - 57.0 °F 73% 30.15 in 10.0 mi SSE 6.9 mph - N/A   Clear
9:54 AM 71.1 °F - 57.0 °F 61% 30.14 in 10.0 mi SSE 8.1 mph - N/A   Clear
10:54 AM 75.0 °F - 57.0 °F 53% 30.14 in 10.0 mi SE 12.7 mph - N/A   Clear
11:54 AM 77.0 °F - 60.1 °F 56% 30.13 in 10.0 mi SE 9.2 mph - N/A   Clear
12:54 PM 79.0 °F - 60.1 °F 52% 30.10 in 10.0 mi SSE 11.5 mph - N/A   Clear
2:54 PM 82.0 °F 83.0 °F 62.1 °F 51% 30.06 in 10.0 mi SSE 12.7 mph - N/A   Clear
3:54 PM 82.0 °F 83.1 °F 63.0 °F 52% 30.05 in 10.0 mi SSE 9.2 mph 19.6 mph N/A   Clear
4:54 PM 80.1 °F 81.2 °F 62.1 °F 54% 30.05 in 10.0 mi South 11.5 mph - N/A   Clear
5:54 PM 78.1 °F - 64.0 °F 62% 30.05 in 10.0 mi South 9.2 mph - N/A   Clear
6:54 PM 73.0 °F - 63.0 °F 71% 30.05 in 10.0 mi SSE 9.2 mph - N/A   Clear
7:54 PM 71.1 °F - 62.1 °F 73% 30.06 in 10.0 mi SSE 10.4 mph - N/A   Clear
8:54 PM 70.0 °F - 62.1 °F 76% 30.06 in 10.0 mi SSE 13.8 mph - N/A   Clear
9:54 PM 68.0 °F - 63.0 °F 84% 30.05 in 10.0 mi South 11.5 mph - N/A   Clear
10:54 PM 66.9 °F - 63.0 °F 87% 30.05 in 9.0 mi South 10.4 mph - N/A   Clear
11:54 PM 64.0 °F - 62.1 °F 93% 30.04 in 7.0 mi South 6.9 mph - N/A   Clear